Wind_Speed
22 22 21 21 21 21 21 20 19 19 20 21 20 19 20 18 18 19 18 16 17 18 16 15 16 14 13 13 12 12 10 10 9 8 9 9 8 10 10 11 11 11 11 11 11 11 10 10 10 9 9 10 10 8 6 7 7 9 10 10 10 9 9 8 6 8 7 6 6 4 6 6 5 8 10 8 7 4 5 7 5 5 8 5 6
22 23 22 21 22 21 22 21 20 20 20 21 20 19 20 18 18 19 19 16 16 18 17 15 15 14 14 13 12 12 11 11 10 9 8 8 8 10 10 10 11 11 11 10 10 10 10 10 10 10 10 10 9 8 8 8 8 9 9 9 9 7 8 8 7 8 6 5 7 5 5 4 2 3 8 9 7 5 5 6 6 6 7 5 7
22 24 22 22 22 22 22 22 21 20 20 20 20 20 19 19 19 19 18 16 16 17 16 14 13 12 13 12 11 12 12 10 9 9 9 8 8 9 9 10 10 10 10 10 10 10 10 10 10 10 10 10 8 7 8 9 9 9 8 7 7 7 8 7 6 8 6 5 7 6 3 3 2 3 6 9 7 6 6 7 8 7 5 3 5
24 24 23 23 23 23 22 22 22 21 21 21 20 20 19 19 21 20 18 16 16 17 15 13 13 12 11 11 10 11 11 10 8 8 10 10 9 8 9 9 9 9 9 10 10 9 10 10 9 9 9 9 8 8 9 10 10 9 7 7 9 8 6 5 5 6 8 7 6 6 5 3 6 6 8 9 7 7 7 7 8 7 5 5 5
24 24 24 23 23 23 22 22 22 22 22 22 22 21 20 20 21 21 19 17 17 18 17 15 15 13 11 11 12 10 9 11 10 9 11 10 8 8 9 10 9 9 9 10 10 9 10 10 9 9 9 9 9 9 10 9 9 9 7 8 10 10 8 5 5 4 5 8 7 6 5 3 4 5 6 6 5 7 7 6 8 6 5 7 7
21 24 24 23 23 22 22 22 22 22 22 22 22 20 20 20 21 21 20 18 17 18 18 17 18 17 14 13 14 13 11 12 11 9 9 11 10 8 8 10 10 9 10 10 9 9 9 10 10 10 9 9 9 10 10 9 9 8 7 8 7 9 10 7 4 4 5 10 9 8 6 4 5 7 5 3 5 9 7 7 9 3 4 9 9
18 23 23 22 24 23 23 23 22 22 21 21 21 20 20 20 20 21 21 19 17 18 18 17 17 18 17 15 14 13 12 12 12 11 9 10 13 11 8 10 10 9 10 9 9 9 9 10 10 10 10 9 10 10 10 9 9 7 7 8 5 8 12 9 5 4 5 8 7 5 3 3 6 7 4 3 4 6 7 7 9 3 3 7 7
17 22 22 22 24 23 23 23 22 22 21 21 21 21 21 21 20 21 21 20 18 19 19 17 16 17 16 15 13 12 11 11 12 11 10 10 13 12 8 10 11 10 10 9 9 9 9 10 10 10 10 10 9 10 10 9 9 8 8 9 7 9 13 12 9 6 5 4 5 5 3 4 6 3 5 7 4 2 4 6 8 6 4 5 6
16 18 20 21 23 22 22 22 21 21 21 22 21 21 22 22 21 21 21 21 19 19 19 18 16 16 16 15 13 12 10 11 12 11 11 11 12 11 9 10 10 10 10 10 10 10 9 10 10 10 10 10 9 10 10 9 10 9 9 9 7 8 10 12 12 9 6 3 6 7 6 5 4 3 8 9 3 0 3 3 5 5 6 8 8
15 17 18 20 22 22 21 21 20 21 21 21 21 21 22 22 22 22 21 21 20 19 19 19 18 17 17 15 14 13 11 11 14 13 13 12 13 12 11 10 10 10 10 10 10 10 9 10 10 10 9 9 10 9 9 9 9 9 9 8 8 8 9 11 11 9 8 5 3 5 6 6 5 6 6 3 0 1 2 2 5 5 6 7 7
15 18 18 18 20 21 20 21 20 20 21 21 21 22 22 23 23 23 22 22 21 20 19 20 19 18 18 16 15 15 13 12 14 15 14 14 14 13 11 10 10 10 10 10 10 9 9 10 9 9 9 9 10 10 9 9 9 9 9 9 8 8 9 12 10 6 7 7 3 2 5 5 4 6 4 3 5 2 3 1 3 5 8 6 5
15 18 18 18 22 20 18 20 21 19 20 21 21 21 23 23 23 24 23 22 21 20 20 20 20 19 19 17 17 17 15 14 15 15 14 14 14 12 11 10 10 10 10 10 10 10 9 9 9 9 9 9 9 9 9 9 8 8 9 9 9 8 9 11 10 7 5 5 3 1 3 3 3 4 3 4 4 5 4 2 3 4 7 4 5
13 17 18 18 23 22 19 22 23 21 21 22 21 21 22 23 23 24 25 24 23 21 20 20 19 19 19 18 18 18 17 15 14 14 14 13 13 12 11 11 11 10 10 10 10 10 10 9 9 9 9 9 9 9 9 9 10 9 9 10 9 9 9 9 9 9 7 4 5 4 2 2 3 1 2 4 2 4 6 2 4 3 6 3 5
13 15 17 19 23 23 21 23 26 24 21 21 22 22 22 23 23 24 25 24 24 23 21 21 19 19 19 18 18 18 18 17 15 15 14 14 14 13 12 12 12 12 11 10 9 10 10 9 9 9 9 9 9 9 9 9 11 11 10 10 10 9 9 9 8 9 8 6 8 9 6 5 4 3 3 3 3 4 4 1 3 5 5 3 6
13 12 13 18 22 22 21 24 26 25 22 21 22 23 23 24 23 23 25 24 24 24 22 22 22 20 19 19 18 19 19 18 17 16 14 14 15 14 13 12 12 12 12 11 10 10 9 10 9 8 8 8 8 9 10 10 10 10 9 9 10 9 10 9 9 9 7 6 7 8 9 7 4 6 5 3 4 5 5 5 6 7 6 3 5
11 9 9 13 18 19 20 24 24 24 23 21 21 23 23 24 24 24 24 24 23 23 23 22 23 22 21 20 19 19 19 19 19 18 16 15 15 15 14 14 13 13 14 13 13 12 11 10 10 9 9 9 9 9 10 10 9 9 10 10 9 9 9 10 10 10 8 7 7 7 9 8 5 7 8 5 5 8 9 9 6 6 5 2 4
9 8 10 13 17 18 20 22 23 24 22 19 19 23 23 23 25 24 24 24 23 23 23 22 23 23 22 22 21 20 20 20 19 19 18 17 16 15 14 15 15 15 15 15 15 15 14 12 10 10 10 9 9 9 9 10 9 10 10 9 9 9 9 10 10 10 10 9 8 7 8 9 9 10 11 8 7 9 11 10 7 6 7 5 3
10 7 10 13 15 17 17 19 22 23 22 19 19 22 23 23 24 24 24 25 25 24 23 23 23 23 23 22 22 22 21 21 20 19 18 17 17 16 15 15 15 14 14 14 15 16 15 13 12 11 11 10 10 9 9 9 9 10 10 9 10 10 9 10 10 10 11 11 10 8 8 8 8 9 10 9 8 10 11 12 10 8 9 8 6
12 11 9 9 13 16 15 15 18 18 18 19 18 21 24 22 22 24 24 24 24 24 24 24 23 23 22 22 22 22 22 22 20 19 19 19 18 17 17 16 16 15 15 15 15 15 15 15 13 12 12 11 11 10 10 10 10 10 10 9 9 10 10 9 9 10 10 10 11 11 10 10 8 7 7 7 8 10 10 11 10 8 10 11 9
8 10 11 8 9 14 16 16 16 15 18 19 17 17 20 20 19 22 23 23 24 24 24 24 24 23 23 22 21 22 22 23 22 20 20 21 20 19 18 17 17 17 17 17 17 16 15 15 14 14 13 12 12 12 11 11 11 10 10 10 9 10 10 10 10 9 9 9 11 12 13 13 12 11 10 9 9 11 9 9 9 8 11 13 12
8 9 9 10 10 8 12 16 14 15 19 20 15 15 17 17 18 19 19 21 23 23 23 24 25 24 23 23 22 22 22 23 23 23 22 22 21 21 19 18 18 18 18 19 19 18 16 16 15 14 14 13 12 12 12 11 11 11 11 11 10 10 11 11 11 10 10 10 11 12 13 14 14 13 13 13 10 10 11 9 10 10 11 12 11
12 10 7 6 9 11 9 12 12 13 17 16 12 14 16 15 16 16 16 19 22 24 23 22 24 24 24 23 23 23 22 22 23 24 24 23 22 22 21 20 20 20 19 19 19 19 18 17 16 15 14 14 13 12 12 12 12 12 12 11 11 11 11 12 12 12 12 12 12 13 14 14 13 13 14 14 12 10 11 11 9 10 11 11 10
16 14 11 7 7 12 13 12 11 12 16 15 10 10 12 15 17 18 18 19 20 22 23 21 22 24 24 24 23 23 23 23 23 24 24 24 23 23 24 22 21 21 21 21 20 19 19 19 17 16 16 16 16 15 13 13 13 12 12 12 11 11 12 12 13 13 13 13 14 15 15 13 12 12 12 13 13 12 12 12 11 12 11 9 10
15 14 13 12 10 11 13 14 15 13 9 11 11 9 9 14 19 20 22 21 20 20 22 21 21 21 21 23 24 23 23 23 23 23 24 25 24 23 24 25 23 22 21 23 22 20 20 20 19 19 19 19 19 17 16 15 15 14 13 13 12 12 13 12 13 13 13 14 15 15 15 13 12 12 12 13 13 14 16 15 14 13 12 9 10
15 14 13 13 13 13 13 13 14 14 11 9 10 9 7 8 12 16 20 21 20 19 20 22 23 22 21 23 25 24 24 24 24 24 24 25 25 24 24 25 25 24 22 22 23 22 21 21 20 20 21 20 19 20 19 17 16 16 15 14 14 15 15 14 14 13 13 14 15 16 15 14 13 13 14 15 15 15 16 17 17 15 14 13 15
16 16 15 15 14 14 14 12 11 12 12 12 11 8 6 6 6 9 13 15 16 17 18 21 22 20 20 23 26 26 25 24 24 24 24 24 24 24 24 24 25 25 23 22 23 24 23 22 22 22 21 20 19 20 20 19 17 17 16 16 15 16 17 16 15 15 15 15 16 16 15 15 15 14 15 16 16 15 15 17 18 17 17 18 20
16 17 17 18 18 17 15 12 10 9 10 11 12 11 9 6 4 7 9 9 11 14 18 20 20 19 20 23 26 28 27 25 24 24 24 23 24 24 24 24 24 24 24 23 22 23 24 23 23 23 23 21 20 19 19 20 19 17 16 17 17 16 17 17 17 16 16 15 15 16 16 16 16 16 17 17 17 16 16 16 17 17 17 19 20
16 17 18 18 19 20 19 16 12 7 6 7 8 9 10 10 6 1 5 6 7 11 16 18 19 22 24 24 24 25 27 27 25 24 25 26 24 24 24 24 24 24 23 24 22 21 23 23 24 24 24 22 21 20 20 20 20 20 19 18 18 18 17 17 17 16 15 15 15 15 16 17 17 18 18 18 17 17 17 17 17 17 19 20 20
15 16 17 18 19 19 20 21 18 11 6 4 2 1 1 3 7 5 2 4 4 6 11 14 16 18 22 25 23 20 22 25 25 23 24 26 26 25 25 25 25 25 23 23 23 22 22 22 23 23 23 23 22 22 22 21 21 20 20 20 20 20 19 17 17 16 16 16 16 16 16 17 18 19 18 18 18 18 18 18 17 18 19 20 21
15 15 16 17 18 19 19 20 20 16 12 10 7 3 3 5 2 2 1 1 1 3 6 10 11 10 12 19 22 20 19 22 25 25 23 24 23 23 25 26 25 25 24 22 23 23 23 22 22 22 23 22 23 23 23 23 22 21 21 21 22 21 21 19 18 18 17 17 16 17 17 17 18 20 20 20 19 19 19 19 19 19 19 20 21
14 15 15 16 17 18 19 19 20 18 16 14 15 14 9 2 3 2 1 3 2 2 3 4 6 8 7 12 17 19 19 20 21 23 25 26 23 20 22 25 26 26 25 24 22 22 23 22 21 21 22 23 23 23 23 25 24 23 22 22 23 23 22 21 20 20 20 19 18 17 17 18 18 20 21 21 21 22 21 21 21 21 21 21 22
14 14 15 15 16 17 18 18 17 18 17 16 16 16 15 13 10 7 6 4 2 2 3 3 5 7 8 11 13 14 17 20 19 15 16 23 26 25 24 21 20 21 23 24 24 23 23 23 22 21 21 22 23 22 22 24 26 26 25 24 24 24 24 24 23 22 22 21 21 20 19 18 17 19 21 22 23 24 23 23 22 22 23 24 24
13 14 14 15 15 15 16 16 16 16 16 15 16 16 16 16 15 14 13 9 5 4 4 4 6 7 7 9 11 12 14 18 19 15 13 15 20 24 25 23 21 19 17 20 22 23 23 23 23 23 21 21 22 22 22 23 24 26 27 26 26 25 25 25 24 24 23 22 22 22 22 21 19 19 19 21 24 24 24 23 22 21 22 24 26
12 13 13 14 15 15 15 16 15 15 14 14 15 16 15 15 16 15 15 14 11 8 7 6 5 6 8 9 11 11 10 10 11 14 17 17 16 17 21 22 22 22 19 19 19 21 23 23 24 25 25 23 22 21 22 23 23 24 25 26 27 27 26 25 25 24 24 23 23 23 24 25 24 23 22 21 22 23 24 25 24 24 24 25 26
11 12 12 13 14 15 15 15 15 14 14 14 15 15 14 14 14 14 14 15 13 11 10 9 9 8 7 9 10 12 11 10 9 8 10 12 13 14 17 18 17 17 19 21 20 21 24 26 26 27 29 30 27 23 21 21 21 22 23 23 24 26 27 27 26 25 25 25 25 24 25 25 26 26 25 25 24 24 24 25 26 27 28 29 28
10 11 12 12 13 13 14 14 14 13 14 14 14 15 14 14 14 14 14 14 14 14 14 13 14 14 10 7 8 10 11 13 13 11 8 7 8 11 14 16 15 15 15 17 20 22 24 25 26 27 29 31 31 30 28 24 20 19 21 23 24 24 26 27 27 27 27 27 27 27 27 27 27 27 27 27 26 26 26 27 28 30 32 34 34
8 9 11 11 12 12 13 13 12 12 14 14 14 14 14 14 14 15 14 14 14 15 17 17 16 17 15 11 9 10 10 10 12 13 13 12 11 10 10 12 14 16 16 17 20 23 24 24 25 27 27 28 29 29 30 29 27 23 22 24 26 27 27 28 29 29 29 29 30 30 30 30 31 31 31 30 29 28 29 30 30 32 34 36 37
7 8 10 11 12 12 11 12 12 12 13 14 13 13 14 14 15 15 15 15 15 16 17 17 17 18 17 14 13 13 12 10 10 10 12 14 14 12 9 9 12 14 16 18 20 22 24 25 25 26 27 28 28 27 27 29 30 29 27 27 28 30 32 32 33 33 32 31 31 32 33 33 34 35 35 34 33 32 33 33 34 34 35 37 38
6 8 9 10 12 11 10 11 12 12 13 14 12 11 12 14 15 16 15 15 17 17 17 17 16 17 17 15 13 13 12 12 11 10 10 11 12 12 11 9 10 11 14 17 18 20 22 24 25 26 27 27 27 27 27 28 29 30 31 30 30 32 34 35 35 35 34 33 32 31 32 34 36 38 38 38 37 36 36 37 38 37 38 40 40
6 7 8 9 10 10 10 11 12 12 13 12 11 11 11 13 15 14 14 15 17 18 19 18 17 16 16 16 15 13 11 13 14 12 9 10 11 12 14 13 12 12 13 15 17 18 20 22 24 25 27 27 27 27 26 26 26 28 30 31 31 32 34 35 34 34 34 34 33 32 32 32 34 36 38 39 40 40 40 40 40 39 41 43 42
6 7 8 7 8 9 10 11 11 12 12 12 12 13 14 15 14 12 12 13 16 19 21 20 19 17 15 15 16 14 12 11 13 12 11 10 9 11 13 16 16 16 16 17 20 21 21 22 22 22 24 26 27 27 25 24 24 26 28 30 31 32 32 33 33 33 34 34 33 33 33 34 33 34 35 36 37 39 40 42 42 43 45 46 44
6 7 6 6 7 8 9 10 11 11 11 12 14 14 15 15 13 12 12 12 14 18 21 22 21 18 16 15 15 15 14 11 10 11 13 12 11 11 11 11 13 14 16 18 22 24 25 26 24 22 22 23 24 26 26 25 25 25 26 28 30 31 30 31 32 33 33 34 34 33 32 32 33 33 33 32 33 33 34 37 40 42 44 45 45
6 6 7 8 7 8 9 10 11 11 11 12 13 13 13 13 12 11 11 12 13 15 18 20 20 18 17 16 14 14 15 13 10 10 13 15 13 12 11 10 9 11 13 15 18 21 24 27 27 26 24 23 23 23 24 26 26 26 25 26 28 29 28 29 32 34 33 33 33 32 30 30 32 33 34 34 33 32 31 33 34 35 38 41 43
6 7 8 8 8 9 10 10 10 11 11 11 12 12 12 12 12 11 11 11 12 13 14 15 17 18 17 15 12 13 14 11 10 11 14 14 15 15 13 12 12 12 12 13 14 15 18 22 25 26 25 24 24 23 23 24 24 25 26 25 26 27 27 28 30 33 34 33 33 32 32 32 34 36 36 37 37 34 32 32 33 32 31 34 38
7 8 9 9 10 10 11 11 11 12 12 11 11 12 13 13 13 13 12 11 11 12 12 14 17 17 16 14 13 12 10 9 11 13 12 12 14 15 15 16 17 15 12 11 12 13 15 17 19 20 21 22 23 23 22 22 23 24 26 26 27 28 28 28 30 32 33 34 35 36 35 34 36 37 38 39 39 38 35 34 34 32 29 29 33
8 9 10 10 11 11 12 12 13 13 13 13 13 13 13 14 14 14 13 12 11 12 12 14 15 15 15 15 13 10 9 11 12 10 9 11 13 13 13 15 17 17 13 12 12 14 16 17 17 16 16 18 20 21 21 21 23 24 25 27 28 29 29 29 30 31 32 33 35 36 34 34 34 36 37 39 40 40 39 37 35 33 30 30 32
8 10 10 10 10 11 13 14 14 14 14 14 14 14 14 14 14 14 13 13 12 12 12 12 13 13 15 14 11 10 10 11 10 9 11 13 15 14 13 13 15 17 18 17 16 14 15 17 18 17 16 16 16 17 18 19 21 24 25 26 27 29 29 30 30 31 31 31 32 31 31 31 32 33 36 39 40 40 40 39 37 35 34 33 33
9 10 10 10 10 11 12 14 15 16 16 16 15 15 15 15 15 14 14 14 13 12 12 12 13 13 14 12 10 10 10 9 9 11 12 13 15 16 16 16 16 19 22 23 21 19 16 15 16 17 18 18 16 15 15 16 17 19 21 23 26 27 27 28 29 29 29 29 29 30 29 28 29 30 34 37 39 40 40 40 39 37 35 34 33
10 10 10 10 10 11 12 13 15 16 17 18 17 16 16 16 16 15 15 15 14 13 12 13 13 12 12 11 10 10 10 11 11 12 12 13 16 18 20 20 18 17 20 22 24 22 18 16 15 15 16 18 17 15 16 17 17 17 17 20 22 24 25 26 26 25 25 27 29 31 28 24 23 26 28 31 34 37 39 39 39 37 35 33 33
10 10 10 10 10 11 12 13 14 15 16 17 18 18 17 16 16 15 15 15 15 14 14 13 13 12 11 10 10 11 12 12 13 13 14 17 19 20 21 21 20 18 18 20 23 23 20 18 16 13 11 14 15 14 15 18 21 23 23 23 22 22 23 23 22 21 23 26 28 29 27 23 22 22 22 21 24 28 33 36 38 37 35 34 33
10 10 10 10 11 12 12 13 15 15 14 15 15 16 17 17 16 16 16 15 14 15 15 14 14 13 11 10 10 12 13 14 14 13 15 18 21 22 21 21 21 21 21 21 22 23 22 21 19 15 10 10 12 11 12 14 18 23 27 27 26 25 24 24 24 24 26 27 28 29 29 28 26 24 20 18 18 20 24 30 35 38 37 36 35
Wind_Direction
165 166 165 164 163 163 162 160 160 159 163 161 157 161 159 156 163 159 159 173 171 165 167 160 151 150 154 156 154 147 148 148 137 136 145 149 153 155 155 152 152 153 152 152 149 146 148 153 155 157 159 153 142 140 150 149 138 130 129 127 121 112 98 89 81 86 90 93 97 86 83 96 116 125 123 119 111 80 88 134 144 95 108 108 80
166 168 167 166 166 164 163 164 164 162 163 163 163 165 161 161 163 159 164 172 171 169 168 161 156 155 156 161 159 148 149 155 152 154 156 153 153 156 156 155 155 156 156 155 151 149 151 154 158 162 163 159 153 150 154 150 140 136 127 114 111 104 102 110 101 87 78 92 111 98 73 96 153 138 131 138 134 109 101 131 148 120 104 93 69
169 170 170 168 168 165 164 167 168 165 163 162 166 168 164 166 165 162 167 168 170 173 170 163 158 158 163 166 159 149 153 161 158 159 163 156 151 154 155 156 157 157 159 157 154 153 153 155 159 162 163 162 159 153 151 150 143 136 124 115 113 93 94 106 103 100 105 115 114 108 100 105 107 123 140 145 144 129 115 124 136 128 102 75 72
170 172 173 171 169 167 166 170 170 167 167 164 167 169 167 172 169 164 167 167 171 174 170 163 158 164 172 162 154 151 153 163 165 153 154 156 152 150 152 153 154 156 159 157 155 156 155 156 158 160 162 159 159 157 151 152 147 134 123 128 123 104 97 93 87 111 127 118 101 103 117 113 99 112 136 139 141 140 127 125 137 141 128 111 114
175 175 176 174 170 170 168 171 172 170 171 168 169 170 171 179 174 166 167 169 175 174 169 168 163 166 173 159 153 156 153 158 162 148 144 155 156 151 151 152 152 152 157 158 157 160 158 156 158 159 161 157 157 158 151 152 148 138 136 132 123 120 123 112 93 98 120 118 115 112 101 77 73 92 138 142 115 121 127 131 141 150 133 126 153
182 178 177 177 173 171 170 172 174 174 175 174 173 172 175 185 179 170 170 172 177 175 173 178 170 164 171 168 162 166 165 157 159 157 151 155 158 158 153 150 152 151 153 158 158 163 161 157 160 159 159 159 158 157 156 157 148 143 147 132 126 135 133 128 115 89 99 110 108 97 72 42 58 72 119 138 82 110 124 136 145 144 110 131 152
187 182 180 180 176 174 173 174 177 177 177 178 176 174 179 188 184 176 174 174 178 176 177 183 178 170 172 172 169 173 171 158 159 166 164 165 165 166 163 152 153 153 154 159 160 165 165 161 162 161 160 162 161 161 161 158 151 157 163 145 150 154 136 129 125 98 94 100 94 84 70 112 102 78 99 91 75 125 128 139 159 166 93 105 114
182 186 184 182 180 177 175 176 179 178 177 179 178 178 183 189 188 183 180 178 180 180 181 183 181 177 174 173 175 175 169 159 162 166 165 173 170 167 169 161 158 158 159 162 162 166 169 166 166 164 164 166 165 164 160 160 163 171 175 167 167 156 142 139 139 123 101 114 142 136 111 127 109 91 151 130 102 122 103 132 167 174 135 85 94
185 191 185 184 184 180 178 178 180 180 178 180 180 181 187 192 190 188 185 183 184 184 184 184 183 182 178 177 177 173 173 167 165 170 168 167 166 165 170 166 162 164 163 164 166 168 170 170 171 170 170 172 171 170 167 170 179 180 180 178 167 157 153 150 144 130 113 148 184 155 121 118 108 116 145 132 115 88 64 95 123 132 136 108 106
192 193 186 188 188 182 181 180 183 182 178 180 181 180 185 191 193 192 190 188 190 190 189 188 187 187 185 183 177 172 182 178 166 173 174 165 164 168 174 171 165 167 167 167 168 167 170 170 171 174 176 178 176 175 177 181 185 183 183 181 172 170 163 151 148 146 137 138 187 173 142 129 121 122 123 114 176 350 12 101 117 131 160 125 108
191 191 191 195 186 181 183 184 185 184 179 179 182 181 183 191 196 194 193 193 195 195 194 194 193 193 190 188 182 175 184 187 175 179 181 173 174 177 177 173 170 172 171 172 171 168 171 168 167 174 178 181 183 181 182 187 188 185 188 188 184 185 170 154 159 177 164 142 111 123 128 117 119 124 127 191 191 223 313 205 144 143 162 159 152
187 184 187 191 182 178 181 187 189 188 184 181 184 184 184 193 198 195 195 197 199 198 196 198 199 199 196 191 188 181 184 192 187 186 188 183 183 184 179 174 175 177 173 174 176 172 173 171 169 177 179 181 186 186 183 183 186 192 198 196 192 196 184 171 174 177 160 141 124 87 105 131 161 124 131 188 198 229 222 146 49 116 151 171 183
182 181 184 190 188 182 180 189 192 190 189 188 187 187 186 193 200 198 197 198 202 204 200 200 202 203 202 197 193 188 185 193 196 193 194 192 189 188 185 181 180 180 177 180 182 176 176 177 176 177 180 183 183 183 185 182 182 194 207 202 197 205 198 192 193 171 150 161 177 182 191 188 195 158 167 190 226 232 194 109 24 149 161 162 167
187 189 193 193 189 187 187 191 191 189 194 194 192 193 191 194 200 201 201 201 204 209 206 204 205 205 206 202 200 197 189 191 198 197 198 200 195 193 191 189 188 184 183 188 186 180 181 182 181 180 181 184 183 184 191 190 187 193 204 203 203 212 208 206 205 176 168 201 193 180 179 175 198 231 216 190 215 226 196 315 311 194 177 175 182
183 183 195 193 188 190 193 191 189 190 198 199 196 198 196 196 202 203 203 202 203 208 209 208 209 209 210 207 205 205 199 195 198 199 204 205 199 197 193 192 195 190 188 190 187 191 197 187 181 185 184 185 186 186 191 194 196 198 201 203 207 217 216 213 211 194 187 208 204 189 184 183 201 210 202 191 203 216 219 242 253 222 205 212 195
170 156 167 185 192 198 195 192 192 193 195 199 201 201 197 199 204 206 206 206 205 208 208 209 212 212 212 211 210 211 207 204 203 201 205 208 205 202 195 190 194 196 195 191 185 194 205 194 185 189 188 188 189 188 190 193 196 198 199 202 205 213 219 217 216 206 192 200 220 215 198 191 188 201 207 211 206 210 215 219 232 233 229 237 176
152 151 161 180 194 194 189 188 192 192 194 205 212 204 200 203 206 207 208 209 209 209 208 207 210 214 215 214 213 214 213 212 210 206 204 208 210 207 203 197 195 200 203 195 188 193 200 201 197 194 191 191 192 191 190 191 196 199 201 204 200 203 219 221 219 211 192 196 222 235 226 201 188 211 215 203 218 226 218 212 207 214 229 225 164
105 122 163 181 187 181 180 185 187 187 191 205 214 206 203 205 208 210 209 211 213 212 210 208 208 212 216 216 214 214 216 214 214 213 206 206 212 208 206 208 203 202 202 200 201 198 197 204 204 200 198 194 193 196 193 190 197 201 201 207 202 198 215 221 219 217 201 198 210 225 251 233 202 226 224 202 233 243 221 212 203 208 228 215 188
85 79 116 165 177 175 182 188 184 180 185 199 207 205 204 204 207 210 210 212 214 211 212 212 211 212 215 217 216 214 217 215 212 215 210 206 210 208 205 209 209 204 198 201 213 211 203 204 205 203 206 201 196 199 198 192 196 203 201 206 208 204 216 222 218 220 211 209 212 207 226 241 222 228 234 225 258 262 229 209 200 214 232 217 210
118 86 83 110 153 174 186 187 186 192 197 200 203 203 203 203 207 212 213 213 212 210 212 214 214 215 216 218 219 215 217 216 209 210 214 210 209 208 207 208 210 209 201 201 213 216 211 208 206 206 210 211 206 201 201 198 198 206 206 205 212 214 219 223 219 219 213 218 231 218 212 225 223 218 216 214 244 267 248 207 196 232 241 221 219
131 128 99 96 108 142 183 186 191 209 209 202 201 201 200 201 205 209 212 216 216 212 213 217 217 217 216 219 223 220 219 219 212 207 213 215 212 209 207 207 209 210 207 207 210 211 212 213 210 208 209 214 220 211 203 205 203 206 211 209 215 219 218 222 222 220 211 213 238 241 229 228 228 225 218 206 216 250 254 225 206 228 245 236 229
75 101 102 103 101 96 124 165 184 206 208 201 199 203 201 202 205 207 210 216 218 216 214 217 220 220 218 219 225 225 222 222 218 211 211 215 216 213 209 207 210 211 210 212 215 212 211 215 213 210 206 209 225 229 214 212 211 208 212 215 219 222 221 222 225 225 219 212 223 238 243 240 236 235 228 217 216 229 249 257 239 226 234 238 242
58 71 76 87 108 101 106 133 155 180 199 198 193 202 207 208 206 205 211 217 218 217 215 216 219 221 220 220 223 226 226 226 222 216 214 215 217 217 213 209 209 212 211 211 218 218 214 215 213 210 209 205 216 232 227 219 219 216 215 216 219 228 233 230 227 232 232 224 223 232 242 246 241 242 240 230 222 216 225 248 259 257 254 239 239
61 66 70 73 85 100 114 127 130 133 163 185 185 191 207 216 213 208 212 217 215 214 215 216 217 218 219 222 223 223 225 227 223 218 217 216 216 218 219 214 209 212 215 212 215 218 218 219 214 210 214 212 209 221 228 223 222 224 223 219 215 222 238 241 234 234 238 237 236 239 244 245 237 240 251 246 233 219 214 220 232 250 263 250 236
72 71 66 69 76 84 95 112 124 119 107 121 151 161 167 194 212 212 211 210 208 211 216 217 218 220 221 223 225 224 224 225 222 218 219 219 217 217 221 221 214 211 216 217 216 215 217 223 221 214 218 222 215 215 223 225 224 226 229 227 220 219 228 239 240 238 240 243 246 247 248 248 238 233 243 251 248 234 221 220 221 224 235 237 231
72 71 66 65 71 75 77 88 111 121 111 106 111 113 121 143 169 195 205 208 210 214 215 213 215 222 226 228 230 227 224 226 225 221 221 221 219 219 219 222 220 215 214 219 221 219 216 220 226 223 221 227 226 221 224 227 227 228 232 234 232 228 230 236 239 240 242 242 246 250 251 251 247 239 237 245 253 249 235 229 227 225 229 236 237
66 67 63 59 60 62 64 72 89 110 120 115 102 88 82 93 138 176 187 202 220 221 214 210 211 215 223 229 232 229 227 230 231 228 226 224 222 221 220 221 223 221 216 217 221 224 221 219 224 228 226 227 230 230 229 230 229 227 231 236 237 236 237 241 242 242 244 245 245 249 252 252 251 248 243 242 247 252 249 240 234 233 236 241 246
65 61 59 56 54 52 51 52 56 75 115 126 114 92 74 61 49 198 200 192 207 217 217 218 219 219 220 223 228 233 234 234 234 235 234 230 227 225 223 224 226 225 220 217 218 223 226 224 222 226 227 226 230 234 233 234 234 229 228 233 239 240 239 242 247 248 248 248 248 250 253 254 255 255 254 251 248 249 254 252 247 241 239 240 243
67 59 55 54 52 50 49 45 44 48 66 108 149 237 267 43 38 22 267 210 200 218 221 221 225 227 225 226 232 241 241 236 239 245 241 232 231 232 228 226 228 227 224 221 219 220 226 229 228 228 228 226 227 235 238 237 238 236 232 231 236 242 241 237 241 247 248 248 248 248 249 252 257 261 264 264 258 252 251 254 256 255 252 249 246
65 60 54 53 50 49 49 47 43 45 57 71 67 49 241 246 299 19 55 168 195 262 238 224 234 244 232 229 235 242 244 242 243 246 240 230 232 238 236 232 231 230 228 227 224 220 224 230 233 233 234 230 227 231 240 243 243 242 241 236 234 240 245 241 235 238 244 247 249 250 251 252 256 262 269 273 272 266 259 254 253 255 257 258 257
62 58 53 51 49 46 47 48 45 42 46 52 51 53 61 36 308 304 66 92 102 308 274 235 261 281 256 231 230 234 246 258 255 247 241 236 241 257 256 243 236 233 231 231 230 225 222 227 233 234 235 235 232 230 236 245 249 247 246 243 239 238 242 245 242 237 238 242 245 249 253 255 257 261 266 272 275 276 273 267 259 255 254 255 257
58 55 51 49 47 43 42 44 46 44 42 41 40 42 46 40 28 22 23 43 66 337 302 260 269 279 261 245 241 239 252 266 270 268 256 244 248 268 277 266 254 247 238 233 234 232 227 226 229 233 234 237 239 237 236 242 250 252 251 249 246 241 239 242 246 244 243 244 245 246 249 252 256 260 264 267 268 272 277 278 274 266 260 256 254
56 53 49 46 43 41 39 37 40 43 42 41 38 37 37 33 29 26 18 11 15 5 334 294 276 267 256 253 251 251 260 266 266 274 285 272 259 262 267 271 281 280 254 234 234 236 235 233 232 232 234 238 243 247 247 246 249 255 256 254 251 247 241 240 244 247 248 248 249 250 251 250 251 254 261 269 272 275 279 282 283 279 271 264 258
56 53 49 45 40 36 35 34 35 38 38 38 37 37 37 34 33 30 20 10 9 16 16 3 336 289 265 262 260 260 273 285 270 262 272 279 273 259 251 256 274 280 262 242 236 233 233 236 235 233 234 236 240 249 256 256 256 258 259 259 258 254 247 243 243 245 248 249 250 253 256 257 256 254 256 263 272 276 278 279 279 279 277 274 268
55 54 52 45 37 32 29 28 29 30 31 32 32 32 34 34 34 34 27 18 13 17 23 25 23 1 304 281 283 281 283 291 286 270 272 274 266 256 250 247 249 251 247 242 240 237 234 232 231 231 231 230 230 236 248 257 261 261 260 261 262 260 255 249 245 245 248 250 251 252 255 258 261 262 261 260 262 266 270 273 274 275 276 276 275
51 53 51 41 33 30 26 24 23 23 25 26 24 25 29 31 30 30 28 21 16 20 27 29 29 22 3 333 318 310 300 293 285 279 286 289 269 257 257 254 243 233 234 239 240 243 243 239 236 236 236 235 232 230 233 239 247 257 259 258 257 258 259 256 253 249 247 248 250 252 254 255 256 259 261 262 261 261 263 266 269 272 275 277 278
47 48 46 32 25 27 23 21 20 17 18 20 16 15 18 21 24 24 22 17 14 18 21 21 23 22 20 21 14 355 340 321 302 287 279 281 285 279 267 260 253 245 241 243 241 241 243 244 243 243 242 244 242 239 238 239 239 243 251 255 255 255 257 259 260 259 255 251 249 249 251 254 255 255 256 258 260 260 260 261 263 267 271 274 278
40 40 36 20 18 23 20 17 14 7 13 18 12 8 11 10 11 16 15 6 3 8 12 12 13 13 17 27 25 10 3 355 336 316 295 282 282 285 276 261 260 261 258 255 250 247 245 243 243 244 243 245 247 245 244 243 241 239 242 248 253 255 256 258 260 263 263 261 257 254 252 253 255 256 257 256 256 258 259 261 262 263 265 268 271
33 32 26 14 15 18 13 12 5 357 7 13 5 5 12 6 2 8 7 355 351 355 1 4 6 5 9 19 17 8 11 14 3 346 321 299 284 278 274 266 264 269 272 270 266 260 254 247 244 244 244 245 247 247 246 245 242 240 240 242 246 249 253 256 258 260 263 264 264 262 259 256 256 257 258 258 258 258 259 261 263 263 264 266 269
25 19 12 10 14 11 6 6 360 352 359 2 351 349 355 355 357 2 2 353 346 344 346 351 357 359 2 7 5 2 13 14 3 357 350 329 305 284 275 274 277 277 270 268 270 270 266 259 253 249 246 246 248 249 249 248 245 243 242 242 243 244 248 252 255 258 261 262 264 264 263 262 261 260 261 262 262 261 261 261 262 262 263 268 271
19 15 11 10 10 4 1 360 355 353 353 345 331 325 328 337 348 354 354 349 340 337 338 341 346 352 356 357 354 356 8 6 349 345 353 351 332 307 286 274 274 277 271 264 266 269 270 268 265 259 254 251 249 248 249 249 248 247 246 247 248 249 250 252 254 257 260 261 262 264 264 264 264 264 264 265 265 266 266 265 264 264 267 272 273
19 19 20 19 9 360 357 354 351 351 346 334 326 326 329 334 339 343 343 339 335 335 336 335 338 345 351 354 355 353 354 353 343 336 340 344 343 337 322 295 276 275 273 266 264 266 269 270 269 266 263 260 256 251 248 248 248 249 250 249 250 254 256 254 253 256 259 261 263 265 266 266 265 264 263 263 263 266 268 268 269 270 271 272 272
20 15 13 15 8 354 347 344 343 343 341 338 335 333 334 335 333 334 334 331 330 333 333 332 335 338 344 354 360 353 346 347 346 335 328 331 338 343 340 332 320 307 296 285 276 272 272 271 268 265 264 263 261 256 252 250 249 249 251 251 251 254 256 253 252 254 256 259 261 262 262 262 261 261 262 263 263 263 264 267 269 272 274 274 272
13 4 359 359 355 347 341 337 336 337 338 340 338 332 330 329 326 323 324 324 325 328 329 328 328 331 339 348 350 348 350 350 339 324 319 324 336 341 339 338 336 325 313 309 304 293 284 278 273 269 265 262 261 261 259 255 250 247 249 251 252 253 253 252 254 255 256 258 259 258 259 261 261 259 260 263 264 263 263 267 267 267 271 275 272
1 355 353 350 344 340 338 336 336 335 333 330 329 326 326 326 322 319 319 320 321 320 319 321 324 329 335 338 340 346 345 330 323 328 330 328 330 333 333 333 332 327 316 309 304 293 287 286 283 278 272 265 262 263 262 259 255 250 248 249 251 252 253 253 254 255 255 256 258 259 261 264 264 262 259 260 262 262 263 267 267 265 265 268 269
356 352 349 346 340 337 335 334 334 334 332 328 325 323 323 323 323 323 322 318 314 310 307 311 319 325 328 331 338 340 326 321 330 339 335 322 314 312 317 324 327 325 314 300 293 286 282 284 286 283 276 266 261 261 261 260 259 255 251 250 251 253 255 255 254 255 256 255 256 259 263 265 265 263 260 258 260 261 263 264 263 262 261 262 265
351 349 347 345 342 336 333 331 331 332 332 329 326 324 321 317 316 318 317 311 304 302 302 305 310 316 323 330 335 331 324 329 335 325 317 319 317 311 309 311 310 307 303 304 306 302 291 286 285 286 285 278 271 266 262 261 263 264 262 259 256 254 254 253 253 256 259 260 261 263 265 265 264 262 259 257 257 258 260 261 260 259 261 261 261
342 343 343 342 339 333 331 330 329 328 327 326 324 321 318 315 314 315 315 312 307 301 300 302 304 309 319 327 329 325 322 320 320 319 320 321 318 311 306 304 304 303 303 307 311 312 308 300 291 288 291 291 284 273 266 266 270 273 271 266 260 255 252 253 254 257 259 261 261 261 259 259 260 261 259 256 254 254 256 259 259 257 259 261 261
337 337 336 334 331 331 331 329 328 327 325 323 321 318 317 316 315 314 313 311 310 307 301 298 299 305 316 322 319 318 317 312 312 317 314 306 304 306 307 308 309 307 305 307 308 308 311 310 301 295 297 298 292 282 274 269 265 265 267 267 263 259 256 255 256 258 259 258 256 254 252 254 260 262 259 255 253 253 255 257 258 258 259 261 262
330 329 330 331 329 329 330 328 327 326 325 323 322 321 321 318 314 313 314 312 310 309 303 297 296 301 307 310 310 314 316 313 311 312 309 304 302 303 304 307 310 309 307 309 311 310 309 306 301 299 304 306 302 294 281 270 263 260 261 262 261 261 263 263 263 263 262 260 258 255 253 255 260 261 258 257 257 258 259 259 261 263 264 265 265
324 324 326 327 327 329 332 333 331 324 318 318 323 324 321 318 313 310 309 308 306 305 302 295 293 295 296 297 311 322 319 314 312 312 310 309 308 305 304 305 309 311 310 311 312 312 311 307 299 294 296 305 309 305 289 275 267 264 262 261 260 259 261 264 266 265 262 262 265 266 263 261 261 261 261 265 271 272 269 266 264 264 266 266 265
Height
1527 1530 1532 1534 1536 1538 1541 1543 1545 1547 1549 1550 1552 1553 1554 1556 1557 1558 1560 1561 1562 1564 1565 1567 1568 1570 1571 1572 1573 1574 1575 1576 1577 1578 1579 1580 1580 1581 1582 1583 1584 1584 1585 1586 1587 1587 1588 1589 1590 1591 1592 1593 1593 1594 1595 1596 1596 1597 1598 1598 1599 1600 1600 1601 1602 1602 1603 1603 1603 1603 1603 1603 1603 1603 1602 1604 1606 1606 1606 1607 1607 1607 1607 1608 1608
1527 1529 1532 1533 1536 1538 1540 1542 1544 1547 1548 1550 1552 1553 1554 1556 1557 1558 1560 1561 1562 1564 1565 1567 1568 1570 1571 1572 1573 1574 1575 1576 1577 1577 1579 1579 1580 1581 1582 1582 1583 1584 1585 1586 1586 1587 1588 1589 1590 1590 1591 1592 1593 1594 1595 1595 1596 1597 1598 1599 1599 1600 1600 1601 1602 1602 1603 1603 1603 1603 1603 1603 1603 1602 1602 1605 1607 1607 1607 1607 1607 1607 1608 1608 1608
1526 1529 1531 1533 1535 1537 1539 1542 1544 1546 1548 1550 1552 1552 1554 1555 1556 1558 1559 1560 1562 1564 1565 1567 1569 1570 1571 1572 1573 1574 1575 1576 1577 1578 1579 1579 1580 1581 1581 1582 1583 1584 1585 1585 1586 1587 1588 1588 1589 1590 1591 1592 1593 1594 1594 1595 1597 1597 1598 1599 1600 1600 1601 1601 1602 1602 1603 1603 1602 1603 1604 1604 1603 1602 1603 1606 1607 1607 1607 1607 1608 1609 1609 1608 1608
1525 1528 1531 1532 1535 1537 1539 1541 1543 1545 1547 1549 1551 1552 1554 1555 1556 1558 1559 1561 1562 1564 1566 1567 1569 1570 1571 1572 1573 1574 1575 1576 1577 1578 1578 1579 1579 1580 1581 1582 1582 1583 1584 1585 1586 1587 1587 1588 1589 1590 1591 1592 1593 1594 1594 1595 1597 1598 1599 1600 1600 1601 1601 1602 1602 1602 1603 1603 1603 1603 1603 1604 1604 1603 1604 1606 1607 1607 1608 1608 1609 1610 1609 1609 1609
1525 1527 1530 1532 1534 1536 1538 1541 1543 1545 1547 1548 1550 1551 1553 1554 1555 1557 1559 1560 1561 1563 1565 1567 1569 1570 1570 1571 1572 1573 1575 1576 1576 1577 1578 1579 1580 1580 1580 1581 1582 1583 1584 1585 1586 1586 1587 1588 1589 1590 1591 1592 1593 1594 1595 1596 1597 1598 1599 1600 1600 1601 1602 1602 1603 1603 1603 1603 1603 1603 1603 1604 1604 1604 1605 1605 1606 1607 1608 1609 1609 1609 1609 1609 1610
1525 1527 1529 1531 1533 1536 1538 1540 1543 1544 1546 1548 1549 1551 1552 1553 1555 1557 1558 1560 1561 1563 1565 1566 1568 1569 1570 1571 1572 1572 1574 1575 1576 1577 1578 1578 1579 1580 1580 1581 1582 1583 1584 1585 1586 1586 1587 1588 1589 1590 1591 1592 1593 1594 1595 1595 1597 1598 1599 1600 1600 1601 1602 1603 1603 1603 1603 1603 1604 1604 1604 1605 1605 1604 1605 1606 1606 1606 1608 1609 1609 1609 1609 1609 1609
1524 1526 1529 1531 1533 1535 1537 1540 1542 1544 1546 1548 1550 1551 1552 1553 1554 1556 1558 1559 1561 1562 1564 1565 1567 1568 1570 1571 1572 1572 1573 1575 1576 1577 1578 1578 1579 1580 1580 1581 1582 1583 1584 1585 1586 1586 1587 1588 1589 1590 1591 1592 1593 1594 1595 1596 1597 1598 1599 1600 1600 1601 1602 1602 1603 1604 1604 1604 1604 1605 1605 1605 1605 1606 1606 1606 1607 1607 1608 1609 1609 1609 1608 1608 1609
1523 1526 1528 1530 1532 1534 1536 1539 1541 1543 1546 1548 1549 1551 1551 1552 1554 1556 1557 1559 1560 1562 1563 1564 1566 1568 1569 1571 1571 1572 1573 1574 1575 1576 1577 1578 1579 1580 1580 1581 1582 1583 1584 1584 1585 1586 1587 1588 1589 1590 1591 1592 1593 1594 1595 1596 1597 1598 1599 1599 1600 1601 1601 1602 1603 1604 1604 1605 1605 1605 1606 1606 1606 1606 1607 1607 1607 1608 1608 1608 1609 1609 1608 1608 1609
1523 1524 1527 1529 1532 1534 1536 1539 1541 1543 1545 1547 1549 1550 1551 1551 1553 1555 1557 1559 1560 1561 1563 1564 1566 1567 1568 1570 1571 1572 1573 1574 1575 1576 1577 1578 1578 1579 1580 1581 1582 1583 1584 1584 1585 1586 1587 1588 1589 1590 1591 1592 1593 1594 1595 1596 1596 1597 1598 1599 1599 1600 1601 1602 1603 1604 1604 1605 1605 1605 1605 1606 1606 1607 1607 1608 1608 1608 1608 1608 1609 1609 1609 1610 1611
1523 1524 1527 1529 1531 1534 1536 1538 1541 1543 1544 1547 1549 1550 1551 1551 1553 1555 1556 1558 1559 1561 1562 1563 1565 1567 1568 1569 1571 1572 1573 1574 1575 1576 1577 1578 1578 1579 1580 1581 1582 1582 1583 1584 1585 1586 1587 1588 1589 1590 1590 1592 1593 1594 1594 1595 1596 1597 1598 1598 1599 1600 1601 1602 1603 1603 1604 1604 1605 1605 1606 1606 1607 1607 1608 1608 1608 1608 1608 1608 1609 1610 1610 1611 1612
1523 1525 1527 1529 1530 1532 1536 1538 1540 1543 1544 1546 1548 1549 1550 1550 1552 1554 1555 1557 1559 1560 1562 1563 1564 1566 1567 1569 1570 1572 1573 1573 1574 1575 1576 1577 1578 1579 1580 1580 1581 1582 1583 1584 1585 1585 1586 1587 1588 1589 1590 1591 1592 1593 1594 1595 1596 1597 1597 1598 1599 1600 1601 1602 1603 1603 1604 1604 1605 1606 1606 1606 1607 1608 1608 1609 1609 1608 1608 1608 1609 1610 1610 1611 1611
1522 1525 1525 1526 1528 1530 1534 1538 1540 1543 1544 1546 1548 1549 1549 1550 1551 1553 1554 1556 1558 1559 1561 1563 1564 1565 1567 1568 1569 1571 1572 1573 1573 1574 1575 1576 1578 1578 1579 1580 1580 1581 1582 1583 1584 1585 1586 1587 1588 1589 1590 1591 1592 1593 1593 1595 1596 1596 1597 1598 1599 1600 1600 1601 1602 1603 1604 1605 1605 1606 1607 1607 1608 1608 1609 1609 1609 1609 1608 1608 1608 1610 1610 1611 1611
1521 1523 1524 1525 1527 1529 1531 1535 1538 1541 1544 1545 1547 1549 1549 1549 1550 1552 1553 1555 1556 1558 1560 1562 1563 1565 1566 1567 1569 1570 1572 1573 1573 1574 1575 1576 1577 1577 1578 1579 1580 1580 1581 1582 1584 1584 1585 1586 1587 1588 1589 1590 1591 1592 1593 1594 1595 1596 1597 1598 1598 1599 1600 1601 1602 1602 1604 1605 1605 1606 1607 1608 1608 1608 1609 1609 1609 1609 1609 1609 1608 1609 1610 1610 1611
1521 1522 1523 1525 1527 1529 1531 1534 1537 1539 1542 1545 1547 1548 1548 1549 1549 1551 1552 1554 1555 1557 1558 1561 1562 1564 1565 1567 1568 1569 1570 1572 1573 1573 1574 1575 1576 1577 1577 1578 1579 1580 1581 1582 1583 1584 1585 1586 1586 1588 1589 1590 1590 1592 1593 1594 1595 1596 1596 1597 1598 1599 1600 1601 1601 1602 1603 1604 1605 1605 1606 1607 1608 1608 1609 1609 1609 1609 1609 1609 1609 1609 1609 1610 1610
1520 1522 1523 1525 1527 1529 1531 1534 1536 1537 1540 1544 1546 1547 1547 1548 1549 1550 1551 1553 1554 1556 1557 1559 1561 1563 1564 1566 1567 1568 1569 1571 1572 1573 1574 1574 1575 1576 1577 1578 1579 1579 1580 1581 1582 1583 1584 1585 1586 1587 1588 1589 1590 1591 1592 1593 1594 1595 1596 1597 1597 1598 1599 1600 1601 1602 1603 1604 1605 1605 1606 1606 1607 1608 1609 1609 1609 1609 1609 1609 1608 1608 1609 1609 1610
1520 1522 1523 1525 1527 1529 1531 1533 1535 1536 1540 1543 1545 1547 1547 1547 1548 1549 1551 1552 1553 1554 1556 1558 1560 1561 1563 1564 1566 1567 1568 1570 1571 1572 1573 1574 1575 1575 1576 1577 1578 1579 1580 1581 1582 1582 1583 1584 1585 1587 1588 1589 1590 1591 1592 1593 1593 1595 1595 1596 1597 1598 1599 1599 1600 1601 1602 1604 1604 1605 1605 1606 1606 1607 1607 1608 1608 1608 1608 1608 1608 1608 1609 1609 1609
1521 1522 1522 1525 1526 1528 1530 1531 1533 1535 1539 1542 1545 1547 1547 1547 1547 1548 1550 1551 1552 1554 1555 1556 1558 1560 1561 1563 1565 1566 1567 1569 1570 1571 1572 1573 1574 1575 1576 1577 1578 1579 1579 1580 1581 1582 1583 1584 1585 1586 1587 1588 1589 1590 1591 1592 1593 1594 1595 1596 1597 1598 1598 1599 1600 1601 1602 1603 1604 1604 1605 1605 1606 1606 1606 1606 1606 1606 1607 1607 1608 1608 1608 1608 1608
1523 1522 1522 1524 1526 1528 1530 1531 1532 1533 1536 1540 1544 1546 1547 1547 1547 1548 1549 1550 1551 1553 1554 1556 1557 1558 1560 1561 1563 1565 1566 1568 1569 1570 1571 1572 1573 1574 1575 1576 1577 1578 1579 1580 1580 1581 1582 1583 1584 1585 1586 1588 1589 1589 1591 1591 1592 1593 1594 1595 1596 1597 1598 1598 1599 1600 1601 1602 1603 1604 1604 1605 1605 1605 1606 1606 1606 1606 1607 1607 1607 1607 1607 1608 1608
1524 1522 1523 1524 1526 1529 1531 1532 1533 1533 1535 1539 1543 1545 1545 1546 1546 1547 1549 1549 1551 1552 1553 1555 1556 1558 1559 1560 1562 1563 1565 1567 1568 1569 1571 1572 1572 1573 1574 1575 1576 1577 1578 1579 1580 1580 1581 1582 1583 1585 1586 1587 1588 1589 1590 1591 1592 1593 1594 1595 1596 1597 1597 1598 1599 1599 1600 1602 1602 1604 1604 1604 1605 1605 1606 1606 1606 1606 1606 1607 1607 1607 1607 1607 1607
1524 1523 1524 1524 1525 1528 1530 1532 1533 1534 1536 1539 1542 1543 1543 1545 1546 1546 1548 1549 1550 1552 1553 1554 1556 1557 1558 1559 1561 1562 1563 1565 1567 1569 1570 1570 1572 1572 1573 1574 1575 1576 1577 1578 1579 1579 1580 1581 1582 1584 1585 1586 1587 1588 1589 1590 1591 1592 1593 1594 1595 1596 1597 1597 1598 1599 1600 1601 1602 1603 1604 1604 1604 1605 1605 1606 1606 1606 1606 1606 1607 1607 1607 1607 1607
1525 1524 1524 1525 1527 1528 1529 1530 1532 1534 1536 1538 1540 1542 1542 1544 1545 1545 1547 1548 1550 1552 1553 1555 1556 1557 1558 1559 1560 1561 1562 1564 1565 1567 1569 1569 1571 1571 1572 1574 1574 1575 1576 1577 1578 1578 1579 1580 1582 1583 1584 1585 1586 1587 1588 1589 1590 1592 1593 1594 1595 1595 1596 1597 1598 1598 1599 1601 1602 1602 1602 1603 1603 1604 1604 1605 1606 1606 1606 1606 1606 1607 1607 1606 1607
1526 1525 1525 1525 1526 1526 1527 1529 1532 1534 1536 1537 1540 1540 1541 1542 1543 1544 1546 1547 1549 1551 1553 1555 1556 1557 1558 1559 1559 1560 1562 1563 1564 1566 1567 1568 1570 1570 1572 1573 1573 1574 1575 1576 1576 1577 1578 1580 1581 1582 1583 1585 1586 1586 1588 1589 1590 1591 1592 1593 1594 1594 1595 1596 1597 1598 1599 1600 1601 1601 1602 1602 1602 1603 1603 1604 1605 1605 1606 1606 1606 1606 1606 1606 1606
1529 1528 1528 1527 1525 1525 1526 1528 1530 1533 1535 1536 1538 1539 1539 1539 1541 1542 1544 1545 1547 1549 1551 1553 1555 1557 1558 1559 1560 1560 1561 1562 1563 1565 1566 1567 1569 1569 1570 1572 1573 1573 1574 1575 1575 1576 1577 1578 1580 1581 1583 1584 1585 1586 1587 1588 1589 1590 1591 1592 1593 1594 1595 1596 1597 1598 1598 1599 1600 1600 1601 1601 1602 1602 1602 1603 1604 1605 1605 1606 1606 1606 1606 1606 1606
1531 1531 1531 1531 1531 1530 1531 1532 1531 1532 1533 1535 1536 1537 1538 1537 1538 1540 1541 1543 1545 1546 1547 1550 1553 1555 1557 1559 1560 1560 1561 1561 1562 1564 1565 1566 1568 1569 1569 1570 1572 1573 1573 1574 1575 1575 1576 1577 1578 1580 1581 1583 1584 1585 1586 1587 1588 1589 1590 1591 1593 1594 1594 1595 1596 1597 1598 1598 1599 1600 1600 1601 1601 1602 1602 1602 1603 1604 1604 1605 1605 1605 1605 1606 1606
1534 1534 1533 1533 1534 1534 1535 1534 1532 1531 1533 1535 1535 1537 1537 1536 1536 1538 1539 1541 1543 1543 1545 1548 1552 1554 1555 1557 1559 1560 1561 1561 1562 1563 1564 1565 1567 1568 1569 1569 1570 1572 1573 1573 1574 1574 1575 1576 1577 1579 1580 1581 1583 1584 1585 1586 1587 1588 1589 1590 1592 1593 1594 1594 1595 1596 1597 1598 1598 1599 1600 1600 1601 1601 1602 1602 1602 1603 1603 1604 1604 1605 1605 1605 1605
1536 1535 1535 1534 1534 1534 1534 1533 1532 1532 1533 1534 1534 1536 1536 1536 1536 1537 1539 1541 1542 1544 1544 1546 1549 1550 1552 1554 1557 1558 1560 1561 1562 1563 1564 1565 1566 1567 1568 1568 1569 1571 1572 1572 1573 1573 1575 1575 1576 1577 1578 1580 1581 1583 1584 1585 1586 1587 1588 1590 1590 1592 1593 1593 1594 1595 1596 1597 1598 1598 1599 1600 1600 1601 1601 1602 1602 1602 1603 1603 1603 1604 1604 1604 1604
1536 1535 1536 1535 1534 1534 1533 1532 1532 1532 1533 1534 1533 1534 1535 1536 1536 1537 1538 1540 1541 1543 1543 1544 1546 1547 1549 1552 1554 1556 1558 1560 1563 1564 1565 1565 1566 1567 1568 1568 1568 1569 1571 1572 1573 1573 1573 1575 1576 1576 1577 1579 1580 1581 1583 1584 1585 1587 1588 1589 1590 1591 1592 1592 1593 1594 1595 1596 1597 1598 1598 1599 1599 1600 1600 1601 1602 1602 1602 1603 1603 1603 1604 1604 1603
1536 1536 1536 1535 1535 1534 1533 1532 1532 1532 1533 1533 1533 1534 1534 1535 1537 1537 1537 1538 1539 1540 1541 1543 1544 1545 1546 1549 1551 1554 1556 1557 1560 1563 1566 1566 1566 1567 1568 1568 1568 1568 1569 1571 1572 1573 1573 1574 1575 1576 1577 1578 1579 1580 1581 1583 1584 1586 1587 1588 1588 1590 1590 1591 1592 1593 1594 1595 1596 1597 1598 1598 1599 1599 1600 1600 1601 1601 1602 1602 1602 1603 1603 1603 1603
1536 1536 1536 1536 1536 1536 1534 1534 1533 1532 1532 1533 1534 1535 1536 1538 1540 1540 1539 1538 1539 1539 1540 1542 1544 1545 1545 1545 1548 1552 1555 1558 1559 1560 1562 1564 1566 1568 1568 1568 1568 1568 1569 1570 1571 1572 1572 1572 1574 1575 1576 1577 1578 1579 1580 1581 1582 1584 1585 1586 1587 1588 1589 1590 1591 1592 1593 1594 1595 1596 1597 1597 1598 1598 1599 1599 1600 1601 1601 1601 1602 1602 1602 1602 1602
1537 1537 1537 1537 1537 1537 1537 1536 1535 1534 1534 1535 1537 1537 1537 1539 1543 1544 1541 1539 1540 1540 1539 1540 1542 1544 1545 1545 1547 1551 1555 1559 1559 1559 1559 1559 1561 1565 1568 1570 1569 1569 1569 1569 1570 1572 1572 1572 1572 1573 1575 1576 1577 1578 1578 1579 1581 1582 1583 1585 1586 1586 1587 1588 1590 1591 1592 1593 1594 1595 1595 1596 1597 1597 1597 1597 1598 1599 1600 1600 1601 1601 1601 1601 1601
1538 1539 1539 1538 1538 1538 1538 1538 1538 1537 1535 1536 1538 1539 1539 1541 1545 1545 1541 1540 1540 1540 1539 1539 1539 1542 1544 1545 1546 1550 1554 1557 1557 1557 1557 1558 1559 1561 1565 1568 1569 1570 1570 1570 1569 1570 1571 1572 1572 1572 1573 1574 1575 1577 1577 1578 1579 1580 1582 1583 1584 1585 1586 1587 1588 1589 1590 1591 1592 1593 1594 1595 1595 1595 1596 1596 1596 1597 1598 1598 1599 1599 1600 1600 1599
1540 1540 1540 1540 1540 1540 1540 1540 1541 1540 1539 1537 1538 1539 1540 1542 1544 1543 1540 1539 1540 1539 1539 1540 1539 1540 1542 1543 1544 1547 1550 1552 1552 1553 1556 1558 1561 1562 1563 1563 1563 1566 1569 1569 1570 1570 1570 1571 1572 1572 1572 1572 1572 1574 1576 1577 1577 1578 1580 1581 1582 1583 1584 1585 1586 1586 1588 1589 1589 1591 1592 1593 1593 1594 1594 1594 1594 1594 1595 1596 1596 1597 1597 1598 1598
1541 1541 1541 1541 1541 1541 1541 1542 1542 1542 1542 1541 1541 1541 1541 1541 1541 1540 1539 1539 1539 1539 1539 1540 1541 1542 1542 1542 1543 1545 1547 1548 1550 1553 1555 1556 1558 1561 1564 1564 1562 1562 1562 1563 1567 1569 1570 1570 1571 1571 1572 1571 1571 1572 1573 1574 1575 1576 1577 1579 1580 1581 1582 1583 1584 1584 1585 1586 1587 1588 1589 1589 1591 1591 1592 1591 1591 1591 1592 1593 1594 1594 1594 1595 1595
1543 1542 1542 1542 1542 1542 1543 1543 1543 1544 1543 1543 1543 1542 1542 1542 1542 1542 1541 1540 1539 1539 1540 1541 1542 1543 1543 1542 1543 1544 1546 1548 1550 1553 1555 1555 1556 1557 1558 1561 1563 1564 1563 1563 1564 1565 1566 1568 1568 1568 1569 1569 1570 1570 1570 1571 1572 1573 1574 1576 1577 1579 1579 1581 1582 1582 1583 1584 1584 1585 1585 1586 1587 1588 1589 1589 1589 1589 1589 1590 1591 1591 1591 1592 1592
1544 1544 1543 1543 1543 1543 1543 1543 1544 1544 1543 1544 1543 1543 1543 1544 1543 1544 1543 1541 1541 1540 1541 1541 1542 1542 1542 1543 1544 1545 1546 1547 1549 1551 1552 1553 1554 1554 1554 1554 1556 1559 1561 1562 1563 1562 1563 1563 1564 1564 1564 1564 1565 1566 1566 1566 1568 1569 1571 1572 1574 1575 1576 1578 1579 1580 1580 1581 1582 1582 1583 1583 1583 1584 1585 1586 1587 1587 1587 1587 1587 1588 1588 1588 1588
1545 1545 1544 1544 1544 1544 1544 1544 1545 1544 1544 1544 1544 1543 1544 1544 1544 1544 1544 1543 1542 1541 1541 1541 1542 1542 1542 1543 1544 1545 1545 1545 1546 1548 1549 1549 1550 1550 1550 1551 1551 1552 1554 1557 1560 1561 1561 1561 1561 1561 1561 1561 1562 1562 1562 1563 1564 1565 1567 1568 1569 1570 1572 1573 1575 1576 1577 1578 1579 1579 1580 1580 1580 1581 1581 1582 1583 1584 1584 1584 1584 1584 1584 1584 1584
1546 1545 1545 1544 1544 1544 1545 1545 1545 1545 1544 1544 1544 1544 1543 1543 1543 1544 1544 1543 1542 1542 1542 1542 1542 1543 1543 1543 1544 1544 1544 1544 1544 1545 1545 1545 1546 1546 1547 1547 1548 1549 1551 1552 1555 1556 1557 1557 1558 1558 1558 1559 1560 1561 1562 1562 1563 1563 1564 1564 1565 1566 1567 1568 1569 1571 1572 1574 1575 1576 1576 1576 1576 1577 1578 1578 1579 1580 1581 1581 1581 1580 1580 1579 1579
1546 1546 1545 1545 1545 1545 1545 1546 1546 1545 1545 1545 1545 1545 1544 1543 1543 1543 1543 1543 1542 1542 1542 1543 1543 1543 1543 1544 1544 1543 1543 1543 1543 1543 1542 1542 1543 1544 1544 1544 1545 1546 1547 1548 1550 1551 1552 1553 1554 1554 1554 1555 1555 1556 1558 1559 1560 1562 1562 1562 1562 1563 1562 1563 1563 1565 1566 1568 1569 1571 1572 1572 1572 1572 1573 1574 1575 1576 1576 1577 1577 1577 1577 1576 1576
1546 1545 1545 1545 1545 1545 1546 1546 1546 1545 1545 1546 1546 1545 1544 1544 1543 1543 1544 1543 1542 1543 1543 1543 1543 1543 1543 1544 1544 1543 1542 1542 1543 1542 1542 1541 1541 1541 1541 1541 1541 1541 1543 1545 1547 1548 1549 1549 1550 1551 1551 1551 1552 1552 1553 1554 1556 1557 1558 1558 1559 1559 1559 1559 1559 1560 1561 1562 1563 1565 1566 1567 1567 1568 1568 1569 1570 1571 1571 1572 1572 1573 1573 1571 1572
1546 1545 1545 1545 1546 1546 1546 1547 1546 1545 1546 1546 1545 1545 1545 1545 1544 1545 1544 1543 1543 1543 1543 1543 1543 1543 1543 1543 1543 1543 1542 1542 1542 1542 1541 1541 1540 1539 1539 1538 1538 1539 1541 1543 1545 1546 1547 1547 1548 1548 1548 1548 1548 1549 1550 1551 1552 1553 1554 1554 1554 1554 1554 1554 1555 1555 1556 1557 1557 1559 1560 1561 1562 1563 1563 1564 1564 1565 1566 1566 1568 1568 1567 1566 1568
1546 1546 1545 1546 1546 1546 1546 1547 1546 1546 1546 1545 1545 1544 1544 1544 1545 1545 1545 1544 1544 1543 1542 1543 1543 1543 1543 1543 1543 1543 1542 1542 1542 1541 1540 1540 1538 1537 1536 1536 1537 1538 1539 1541 1543 1544 1545 1545 1546 1546 1545 1545 1545 1545 1546 1548 1549 1549 1550 1551 1551 1551 1551 1551 1552 1552 1552 1552 1552 1553 1553 1555 1556 1557 1558 1559 1559 1559 1560 1561 1562 1562 1561 1562 1564
1546 1546 1546 1546 1546 1546 1546 1546 1546 1546 1546 1545 1544 1544 1544 1544 1545 1545 1545 1545 1544 1543 1542 1542 1542 1542 1543 1542 1542 1542 1542 1542 1541 1540 1539 1538 1537 1536 1535 1534 1534 1535 1536 1538 1540 1541 1542 1542 1543 1543 1543 1542 1542 1542 1542 1543 1544 1545 1546 1547 1547 1548 1549 1550 1549 1548 1548 1548 1548 1549 1550 1550 1550 1550 1551 1551 1552 1553 1554 1555 1555 1556 1557 1558 1559
1546 1546 1546 1545 1545 1546 1546 1545 1545 1545 1545 1544 1544 1544 1544 1544 1544 1545 1545 1545 1544 1543 1542 1542 1542 1542 1542 1542 1542 1542 1541 1540 1540 1539 1539 1538 1536 1535 1534 1534 1533 1533 1534 1535 1536 1537 1538 1539 1539 1539 1540 1540 1539 1539 1539 1539 1540 1541 1542 1543 1543 1544 1546 1547 1546 1545 1544 1544 1545 1546 1547 1546 1546 1545 1545 1545 1544 1545 1546 1547 1548 1550 1552 1554 1555
1545 1545 1544 1544 1545 1545 1545 1545 1545 1544 1544 1544 1544 1544 1543 1544 1544 1544 1544 1544 1544 1544 1543 1542 1541 1541 1541 1541 1541 1541 1541 1540 1539 1539 1538 1537 1536 1535 1534 1534 1534 1534 1534 1534 1534 1535 1536 1536 1535 1535 1536 1536 1536 1536 1535 1535 1535 1537 1537 1538 1539 1540 1541 1541 1541 1540 1541 1541 1541 1541 1541 1541 1541 1541 1542 1542 1541 1540 1539 1539 1540 1543 1546 1548 1550
1544 1544 1543 1542 1543 1543 1544 1544 1543 1543 1543 1543 1543 1543 1542 1542 1542 1542 1542 1543 1543 1543 1543 1542 1541 1540 1540 1541 1540 1541 1541 1540 1539 1539 1538 1537 1537 1535 1535 1534 1534 1534 1534 1534 1534 1534 1534 1533 1533 1532 1532 1533 1533 1533 1532 1531 1531 1532 1533 1533 1534 1535 1535 1536 1536 1536 1536 1537 1537 1536 1536 1536 1536 1537 1537 1537 1537 1537 1536 1535 1534 1536 1538 1541 1544
1543 1542 1541 1541 1541 1541 1542 1542 1542 1542 1542 1541 1541 1541 1541 1541 1541 1541 1541 1541 1542 1542 1542 1541 1541 1540 1539 1539 1540 1540 1540 1539 1538 1538 1537 1537 1537 1536 1535 1535 1534 1534 1533 1533 1532 1532 1530 1530 1529 1529 1528 1529 1529 1529 1529 1528 1528 1528 1528 1529 1530 1530 1531 1532 1532 1531 1532 1533 1532 1532 1533 1533 1532 1532 1531 1531 1531 1533 1535 1533 1531 1530 1531 1534 1537
1542 1541 1541 1541 1540 1540 1540 1540 1540 1540 1540 1540 1540 1540 1539 1540 1539 1539 1539 1539 1539 1540 1540 1540 1540 1539 1538 1538 1538 1539 1538 1538 1537 1537 1536 1536 1535 1535 1535 1534 1533 1532 1530 1530 1530 1529 1527 1527 1526 1525 1525 1525 1525 1525 1525 1525 1525 1524 1525 1525 1526 1526 1526 1527 1527 1528 1528 1528 1529 1529 1529 1528 1526 1525 1525 1524 1524 1526 1529 1530 1528 1526 1525 1527 1530
1540 1540 1540 1540 1540 1540 1539 1539 1538 1538 1538 1538 1538 1538 1538 1538 1537 1537 1537 1537 1537 1538 1538 1538 1539 1538 1537 1537 1537 1537 1537 1536 1536 1535 1535 1534 1534 1533 1533 1532 1532 1531 1529 1528 1527 1526 1525 1524 1523 1523 1523 1522 1522 1522 1522 1522 1522 1522 1522 1521 1522 1522 1523 1523 1524 1524 1524 1524 1524 1523 1523 1521 1520 1519 1518 1518 1518 1520 1522 1523 1524 1523 1522 1522 1524
1539 1540 1540 1540 1540 1540 1539 1538 1538 1537 1536 1536 1535 1535 1536 1535 1535 1536 1535 1535 1535 1535 1536 1536 1537 1536 1536 1536 1536 1536 1535 1534 1534 1534 1533 1533 1532 1531 1530 1530 1530 1530 1528 1527 1526 1525 1524 1523 1522 1521 1521 1520 1520 1519 1519 1519 1519 1519 1518 1518 1518 1519 1520 1520 1521 1521 1520 1519 1518 1518 1517 1515 1514 1513 1513 1513 1514 1515 1516 1518 1519 1519 1518 1518 1519
1539 1539 1539 1539 1539 1538 1538 1538 1537 1536 1535 1534 1533 1533 1533 1533 1534 1534 1534 1534 1534 1534 1534 1535 1535 1535 1535 1534 1534 1533 1533 1533 1532 1532 1531 1530 1529 1529 1528 1527 1527 1527 1527 1526 1524 1523 1523 1522 1520 1520 1519 1518 1517 1516 1515 1515 1515 1515 1515 1515 1515 1516 1517 1517 1518 1518 1516 1515 1514 1514 1513 1511 1510 1510 1508 1508 1509 1511 1512 1514 1514 1514 1513 1512 1512
1538 1538 1538 1538 1538 1537 1537 1537 1536 1535 1534 1533 1532 1532 1532 1532 1532 1532 1532 1532 1532 1532 1532 1532 1533 1533 1533 1532 1531 1531 1531 1531 1531 1530 1529 1528 1526 1526 1525 1525 1524 1523 1523 1523 1522 1522 1521 1520 1519 1518 1517 1516 1515 1514 1512 1511 1511 1511 1511 1510 1510 1511 1512 1513 1514 1514 1512 1511 1511 1511 1509 1508 1508 1506 1504 1503 1504 1505 1507 1509 1510 1510 1510 1509 1507